TimeCST,TemperatureF,Dew PointF,Humidity,Sea Level PressureIn,VisibilityMPH,Wind Direction,Wind SpeedMPH,Gust SpeedMPH,PrecipitationIn,Events,Conditions,WindDirDegrees,DateUTC
12:53 AM,37.9,27.0,65,30.09,10.0,NNE,11.5,-,N/A,,Clear,30,2013-02-02 06:53:00
1:53 AM,36.0,27.0,70,30.09,10.0,NE,9.2,-,N/A,,Clear,50,2013-02-02 07:53:00
2:53 AM,36.0,28.0,73,30.08,10.0,ENE,12.7,-,N/A,,Clear,70,2013-02-02 08:53:00
3:53 AM,34.0,27.0,75,30.10,10.0,NE,10.4,-,N/A,,Clear,40,2013-02-02 09:53:00
4:53 AM,34.0,27.0,75,30.13,10.0,North,13.8,-,N/A,,Clear,10,2013-02-02 10:53:00
6:53 AM,33.1,26.1,75,30.19,10.0,North,11.5,-,N/A,,Clear,360,2013-02-02 12:53:00
7:53 AM,35.1,27.0,72,30.23,10.0,North,11.5,-,N/A,,Clear,360,2013-02-02 13:53:00
8:53 AM,39.0,28.0,65,30.26,10.0,North,8.1,-,N/A,,Clear,360,2013-02-02 14:53:00
9:53 AM,48.9,30.0,48,30.28,10.0,NNE,15.0,-,N/A,,Clear,20,2013-02-02 15:53:00
10:53 AM,53.1,30.9,43,30.28,10.0,North,13.8,-,N/A,,Clear,10,2013-02-02 16:53:00
11:53 AM,55.9,30.9,39,30.29,10.0,North,15.0,-,N/A,,Clear,360,2013-02-02 17:53:00
12:53 PM,60.1,32.0,35,30.28,10.0,North,13.8,-,N/A,,Clear,360,2013-02-02 18:53:00
1:53 PM,62.1,30.0,30,30.26,10.0,North,13.8,-,N/A,,Clear,10,2013-02-02 19:53:00
2:53 PM,64.0,30.0,28,30.25,10.0,NNE,11.5,17.3,N/A,,Clear,20,2013-02-02 20:53:00
3:53 PM,64.0,28.0,26,30.25,10.0,North,6.9,-,N/A,,Clear,360,2013-02-02 21:53:00
4:53 PM,63.0,25.0,24,30.25,10.0,North,5.8,-,N/A,,Clear,10,2013-02-02 22:53:00
5:53 PM,57.9,28.9,33,30.25,10.0,NNE,4.6,-,N/A,,Clear,20,2013-02-02 23:53:00
6:53 PM,50.0,26.1,39,30.28,10.0,NNE,3.5,-,N/A,,Clear,30,2013-02-03 00:53:00
7:53 PM,50.0,26.1,39,30.28,10.0,Calm,Calm,-,N/A,,Clear,0,2013-02-03 01:53:00
8:53 PM,46.0,27.0,47,30.30,10.0,Calm,Calm,-,N/A,,Clear,0,2013-02-03 02:53:00
9:53 PM,46.0,27.0,47,30.30,10.0,Calm,Calm,-,N/A,,Clear,0,2013-02-03 03:53:00
10:53 PM,44.1,28.0,53,30.30,10.0,Calm,Calm,-,N/A,,Clear,0,2013-02-03 04:53:00
11:53 PM,43.0,26.1,51,30.30,10.0,West,3.5,-,N/A,,Clear,260,2013-02-03 05:53:00